Year,Month,Day,Hour,Minute,Value (Times are PST for temperature in C)
2018,05,25,00,00,11.90
2018,05,25,00,01,11.90
2018,05,25,00,02,11.90
2018,05,25,00,03,11.90
2018,05,25,00,04,11.80
2018,05,25,00,05,11.80
2018,05,25,00,06,11.80
2018,05,25,00,07,11.70
2018,05,25,00,08,11.70
2018,05,25,00,09,11.70
2018,05,25,00,10,11.70
2018,05,25,00,11,11.70
2018,05,25,00,12,11.60
2018,05,25,00,13,11.60
2018,05,25,00,14,11.60
2018,05,25,00,15,11.60
2018,05,25,00,16,11.60
2018,05,25,00,17,11.60
2018,05,25,00,18,11.60
2018,05,25,00,19,11.50
2018,05,25,00,20,11.50
2018,05,25,00,21,11.50
2018,05,25,00,22,11.50
2018,05,25,00,23,11.50
2018,05,25,00,24,11.40
2018,05,25,00,25,11.40
2018,05,25,00,26,11.40
2018,05,25,00,27,11.40
2018,05,25,00,28,11.40
2018,05,25,00,29,11.40
2018,05,25,00,30,11.40
2018,05,25,00,31,11.30
2018,05,25,00,32,11.30
2018,05,25,00,33,11.30
2018,05,25,00,34,11.30
2018,05,25,00,35,11.30
2018,05,25,00,36,11.30
2018,05,25,00,37,11.20
2018,05,25,00,38,11.20
2018,05,25,00,39,11.20
2018,05,25,00,40,11.20
2018,05,25,00,41,11.20
2018,05,25,00,42,11.20
2018,05,25,00,43,11.20
2018,05,25,00,44,11.10
2018,05,25,00,45,11.10
2018,05,25,00,46,11.10
2018,05,25,00,47,11.10
2018,05,25,00,48,11.00
2018,05,25,00,49,11.00
2018,05,25,00,50,11.00
2018,05,25,00,51,11.00
2018,05,25,00,52,11.00
2018,05,25,00,53,11.00
2018,05,25,00,54,10.90
2018,05,25,00,55,10.90
2018,05,25,00,56,10.90
2018,05,25,00,57,10.90
2018,05,25,00,58,10.90
2018,05,25,00,59,10.90
2018,05,25,01,00,10.90
2018,05,25,01,01,10.90
2018,05,25,01,02,10.90
2018,05,25,01,03,10.90
2018,05,25,01,04,10.80
2018,05,25,01,05,10.80
2018,05,25,01,06,10.80
2018,05,25,01,07,10.80
2018,05,25,01,08,10.80
2018,05,25,01,09,10.80
2018,05,25,01,10,10.80
2018,05,25,01,11,10.80
2018,05,25,01,12,10.80
2018,05,25,01,13,10.80
2018,05,25,01,14,10.80
2018,05,25,01,15,10.70
2018,05,25,01,16,10.70
2018,05,25,01,17,10.70
2018,05,25,01,18,10.70
2018,05,25,01,19,10.70
2018,05,25,01,20,10.70
2018,05,25,01,21,10.70
2018,05,25,01,22,10.70
2018,05,25,01,23,10.70
2018,05,25,01,24,10.60
2018,05,25,01,25,10.60
2018,05,25,01,26,10.60
2018,05,25,01,27,10.60
2018,05,25,01,28,10.60
2018,05,25,01,29,10.60
2018,05,25,01,30,10.60
2018,05,25,01,31,10.60
2018,05,25,01,32,10.50
2018,05,25,01,33,10.50
2018,05,25,01,34,10.50
2018,05,25,01,35,10.50
2018,05,25,01,36,10.50
2018,05,25,01,37,10.40
2018,05,25,01,38,10.40
2018,05,25,01,39,10.40
2018,05,25,01,40,10.40
2018,05,25,01,41,10.40
2018,05,25,01,42,10.40
2018,05,25,01,43,10.40
2018,05,25,01,44,10.40
2018,05,25,01,45,10.40
2018,05,25,01,46,10.40
2018,05,25,01,47,10.40
2018,05,25,01,48,10.40
2018,05,25,01,49,10.40
2018,05,25,01,50,10.40
2018,05,25,01,51,10.40
2018,05,25,01,52,10.30
2018,05,25,01,53,10.40
2018,05,25,01,54,10.40
2018,05,25,01,55,10.40
2018,05,25,01,56,10.40
2018,05,25,01,57,10.40
2018,05,25,01,58,10.40
2018,05,25,01,59,10.40
2018,05,25,02,00,10.40
2018,05,25,02,01,10.40
2018,05,25,02,02,10.40
2018,05,25,02,03,10.40
2018,05,25,02,04,10.40
2018,05,25,02,05,10.40
2018,05,25,02,06,10.40
2018,05,25,02,07,10.40
2018,05,25,02,08,10.40
2018,05,25,02,09,10.40
2018,05,25,02,10,10.40
2018,05,25,02,11,10.40
2018,05,25,02,12,10.40
2018,05,25,02,13,10.40
2018,05,25,02,14,10.40
2018,05,25,02,15,10.40
2018,05,25,02,16,10.40
2018,05,25,02,17,10.40
2018,05,25,02,18,10.40
2018,05,25,02,19,10.40
2018,05,25,02,20,10.40
2018,05,25,02,21,10.40
2018,05,25,02,22,10.40
2018,05,25,02,23,10.40
2018,05,25,02,24,10.40
2018,05,25,02,25,10.40
2018,05,25,02,26,10.40
2018,05,25,02,27,10.40
2018,05,25,02,28,10.40
2018,05,25,02,29,10.40
2018,05,25,02,30,10.40
2018,05,25,02,31,10.40
2018,05,25,02,32,10.40
2018,05,25,02,33,10.40
2018,05,25,02,34,10.40
2018,05,25,02,35,10.40
2018,05,25,02,36,10.40
2018,05,25,02,37,10.40
2018,05,25,02,38,10.40
2018,05,25,02,39,10.40
2018,05,25,02,40,10.30
2018,05,25,02,41,10.30
2018,05,25,02,42,10.30
2018,05,25,02,43,10.30
2018,05,25,02,44,10.30
2018,05,25,02,45,10.30
2018,05,25,02,46,10.30
2018,05,25,02,47,10.30
2018,05,25,02,48,10.30
2018,05,25,02,49,10.30
2018,05,25,02,50,10.20
2018,05,25,02,51,10.20
2018,05,25,02,52,10.20
2018,05,25,02,53,10.20
2018,05,25,02,54,10.20
2018,05,25,02,55,10.20
2018,05,25,02,56,10.20
2018,05,25,02,57,10.10
2018,05,25,02,58,10.10
2018,05,25,02,59,10.10
2018,05,25,03,00,10.10
2018,05,25,03,01,10.00
2018,05,25,03,02,10.00
2018,05,25,03,03,10.00
2018,05,25,03,04,9.90
2018,05,25,03,05,9.90
2018,05,25,03,06,9.90
2018,05,25,03,07,9.90
2018,05,25,03,08,9.90
2018,05,25,03,09,9.90
2018,05,25,03,10,9.90
2018,05,25,03,11,9.90
2018,05,25,03,12,9.90
2018,05,25,03,13,9.90
2018,05,25,03,14,9.80
2018,05,25,03,15,9.80
2018,05,25,03,16,9.80
2018,05,25,03,17,9.80
2018,05,25,03,18,9.80
2018,05,25,03,19,9.80
2018,05,25,03,20,9.80
2018,05,25,03,21,9.80
2018,05,25,03,22,9.80
2018,05,25,03,23,9.80
2018,05,25,03,24,9.80
2018,05,25,03,25,9.70
2018,05,25,03,26,9.80
2018,05,25,03,27,9.80
2018,05,25,03,28,9.80
2018,05,25,03,29,9.80
2018,05,25,03,30,9.80
2018,05,25,03,31,9.70
2018,05,25,03,32,9.70
2018,05,25,03,33,9.70
2018,05,25,03,34,9.70
2018,05,25,03,35,9.70
2018,05,25,03,36,9.70
2018,05,25,03,37,9.70
2018,05,25,03,38,9.70
2018,05,25,03,39,9.70
2018,05,25,03,40,9.70
2018,05,25,03,41,9.70
2018,05,25,03,42,9.70
2018,05,25,03,43,9.70
2018,05,25,03,44,9.70
2018,05,25,03,45,9.70
2018,05,25,03,46,9.70
2018,05,25,03,47,9.60
2018,05,25,03,48,9.60
2018,05,25,03,49,9.60
2018,05,25,03,50,9.60
2018,05,25,03,51,9.60
2018,05,25,03,52,9.60
2018,05,25,03,53,9.50
2018,05,25,03,54,9.50
2018,05,25,03,55,9.50
2018,05,25,03,56,9.50
2018,05,25,03,57,9.40
2018,05,25,03,58,9.40
2018,05,25,03,59,9.40
2018,05,25,04,00,9.40
2018,05,25,04,01,9.40
2018,05,25,04,02,9.30
2018,05,25,04,03,9.30
2018,05,25,04,04,9.30
2018,05,25,04,05,9.30
2018,05,25,04,06,9.30
2018,05,25,04,07,9.30
2018,05,25,04,08,9.30
2018,05,25,04,09,9.20
2018,05,25,04,10,9.20
2018,05,25,04,11,9.20
2018,05,25,04,12,9.10
2018,05,25,04,13,9.10
2018,05,25,04,14,9.10
2018,05,25,04,15,9.10
2018,05,25,04,16,9.00
2018,05,25,04,17,9.00
2018,05,25,04,18,9.00
2018,05,25,04,19,9.00
2018,05,25,04,20,8.90
2018,05,25,04,21,8.90
2018,05,25,04,22,8.90
2018,05,25,04,23,8.90
2018,05,25,04,24,8.90
2018,05,25,04,25,8.80
2018,05,25,04,26,8.80
2018,05,25,04,27,8.80
2018,05,25,04,28,8.80
2018,05,25,04,29,8.80
2018,05,25,04,30,8.80
2018,05,25,04,31,8.70
2018,05,25,04,32,8.70
2018,05,25,04,33,8.70
2018,05,25,04,34,8.70
2018,05,25,04,35,8.60
2018,05,25,04,36,8.60
2018,05,25,04,37,8.60
2018,05,25,04,38,8.60
2018,05,25,04,39,8.60
2018,05,25,04,40,8.60
2018,05,25,04,41,8.50
2018,05,25,04,42,8.50
2018,05,25,04,43,8.50
2018,05,25,04,44,8.50
2018,05,25,04,45,8.50
2018,05,25,04,46,8.50
2018,05,25,04,47,8.40
2018,05,25,04,48,8.40
2018,05,25,04,49,8.40
2018,05,25,04,50,8.40
2018,05,25,04,51,8.40
2018,05,25,04,52,8.30
2018,05,25,04,53,8.30
2018,05,25,04,54,8.30
2018,05,25,04,55,8.30
2018,05,25,04,56,8.30
2018,05,25,04,57,8.20
2018,05,25,04,58,8.20
2018,05,25,04,59,8.20
2018,05,25,05,00,8.20
2018,05,25,05,01,8.10
2018,05,25,05,02,8.10
2018,05,25,05,03,8.10
2018,05,25,05,04,8.10
2018,05,25,05,05,8.10
2018,05,25,05,06,8.10
2018,05,25,05,07,8.10
2018,05,25,05,08,8.10
2018,05,25,05,09,8.10
2018,05,25,05,10,8.10
2018,05,25,05,11,8.10
2018,05,25,05,12,8.00
2018,05,25,05,13,8.00
2018,05,25,05,14,8.00
2018,05,25,05,15,8.00
2018,05,25,05,16,8.00
2018,05,25,05,17,8.00
2018,05,25,05,18,8.00
2018,05,25,05,19,8.00
2018,05,25,05,20,8.00
2018,05,25,05,21,8.00
2018,05,25,05,22,8.00
2018,05,25,05,23,7.90
2018,05,25,05,24,7.90
2018,05,25,05,25,7.90
2018,05,25,05,26,7.90
2018,05,25,05,27,7.90
2018,05,25,05,28,7.90
2018,05,25,05,29,7.90
2018,05,25,05,30,7.90
2018,05,25,05,31,7.80
2018,05,25,05,32,7.80
2018,05,25,05,33,7.80
2018,05,25,05,34,7.80
2018,05,25,05,35,7.80
2018,05,25,05,36,7.80
2018,05,25,05,37,7.80
2018,05,25,05,38,7.80
2018,05,25,05,39,7.80
2018,05,25,05,40,7.80
2018,05,25,05,41,7.80
2018,05,25,05,42,7.80
2018,05,25,05,43,7.80
2018,05,25,05,44,7.80
2018,05,25,05,45,7.80
2018,05,25,05,46,7.80
2018,05,25,05,47,7.80
2018,05,25,05,48,7.80
2018,05,25,05,49,7.80
2018,05,25,05,50,7.80
2018,05,25,05,51,7.80
2018,05,25,05,52,7.80
2018,05,25,05,53,7.80
2018,05,25,05,54,7.80
2018,05,25,05,55,7.80
2018,05,25,05,56,7.80
2018,05,25,05,57,7.80
2018,05,25,05,58,7.80
2018,05,25,05,59,7.80
2018,05,25,06,00,7.80
2018,05,25,06,01,7.80
2018,05,25,06,02,7.80
2018,05,25,06,03,7.80
2018,05,25,06,04,7.80
2018,05,25,06,05,7.80
2018,05,25,06,06,7.80
2018,05,25,06,07,7.80
2018,05,25,06,08,7.80
2018,05,25,06,09,7.80
2018,05,25,06,10,7.80
2018,05,25,06,11,7.80
2018,05,25,06,12,7.80
2018,05,25,06,13,7.80
2018,05,25,06,14,7.80
2018,05,25,06,15,7.80
2018,05,25,06,16,7.80
2018,05,25,06,17,7.80
2018,05,25,06,18,7.80
2018,05,25,06,19,7.80
2018,05,25,06,20,7.80
2018,05,25,06,21,7.80
2018,05,25,06,22,7.80
2018,05,25,06,23,7.80
2018,05,25,06,24,7.80
2018,05,25,06,25,7.80
2018,05,25,06,26,7.80
2018,05,25,06,27,7.80
2018,05,25,06,28,7.80
2018,05,25,06,29,7.90
2018,05,25,06,30,7.90
2018,05,25,06,31,7.90
2018,05,25,06,32,7.90
2018,05,25,06,33,8.00
2018,05,25,06,34,8.00
2018,05,25,06,35,8.10
2018,05,25,06,36,8.20
2018,05,25,06,37,8.20
2018,05,25,06,38,8.30
2018,05,25,06,39,8.30
2018,05,25,06,40,8.30
2018,05,25,06,41,8.40
2018,05,25,06,42,8.40
2018,05,25,06,43,8.40
2018,05,25,06,44,8.40
2018,05,25,06,45,8.40
2018,05,25,06,46,8.40
2018,05,25,06,47,8.40
2018,05,25,06,48,8.40
2018,05,25,06,49,8.50
2018,05,25,06,50,8.50
2018,05,25,06,51,8.50
2018,05,25,06,52,8.60
2018,05,25,06,53,8.60
2018,05,25,06,54,8.60
2018,05,25,06,55,8.70
2018,05,25,06,56,8.70
2018,05,25,06,57,8.80
2018,05,25,06,58,8.80
2018,05,25,06,59,8.80
2018,05,25,07,00,8.90
2018,05,25,07,01,8.90
2018,05,25,07,02,8.90
2018,05,25,07,03,8.90
2018,05,25,07,04,9.00
2018,05,25,07,05,9.10
2018,05,25,07,06,9.20
2018,05,25,07,07,9.20
2018,05,25,07,08,9.30
2018,05,25,07,09,9.40
2018,05,25,07,10,9.50
2018,05,25,07,11,9.50
2018,05,25,07,12,9.50
2018,05,25,07,13,9.60
2018,05,25,07,14,9.60
2018,05,25,07,15,9.60
2018,05,25,07,16,9.60
2018,05,25,07,17,9.60
2018,05,25,07,18,9.60
2018,05,25,07,19,9.60
2018,05,25,07,20,9.70
2018,05,25,07,21,9.70
2018,05,25,07,22,9.80
2018,05,25,07,23,9.90
2018,05,25,07,24,9.90
2018,05,25,07,25,10.00
2018,05,25,07,26,10.00
2018,05,25,07,27,10.10
2018,05,25,07,28,10.10
2018,05,25,07,29,10.20
2018,05,25,07,30,10.30
2018,05,25,07,31,10.30
2018,05,25,07,32,10.40
2018,05,25,07,33,10.50
2018,05,25,07,34,10.70
2018,05,25,07,35,10.80
2018,05,25,07,36,10.80
2018,05,25,07,37,10.90
2018,05,25,07,38,11.10
2018,05,25,07,39,11.20
2018,05,25,07,40,11.30
2018,05,25,07,41,11.40
2018,05,25,07,42,11.50
2018,05,25,07,43,11.60
2018,05,25,07,44,11.70
2018,05,25,07,45,11.80
2018,05,25,07,46,11.80
2018,05,25,07,47,11.90
2018,05,25,07,48,12.00
2018,05,25,07,49,12.10
2018,05,25,07,50,12.20
2018,05,25,07,51,12.20
2018,05,25,07,52,12.20
2018,05,25,07,53,12.30
2018,05,25,07,54,12.30
2018,05,25,07,55,12.40
2018,05,25,07,56,12.50
2018,05,25,07,57,12.60
2018,05,25,07,58,12.70
2018,05,25,07,59,12.80
2018,05,25,08,00,12.80
2018,05,25,08,01,12.90
2018,05,25,08,02,12.90
2018,05,25,08,03,13.00
2018,05,25,08,04,13.00
2018,05,25,08,05,13.10
2018,05,25,08,06,13.10
2018,05,25,08,07,13.10
2018,05,25,08,08,13.20
2018,05,25,08,09,13.20
2018,05,25,08,10,13.30
2018,05,25,08,11,13.30
2018,05,25,08,12,13.40
2018,05,25,08,13,13.40
2018,05,25,08,14,13.50
2018,05,25,08,15,13.60
2018,05,25,08,16,13.60
2018,05,25,08,17,13.60
2018,05,25,08,18,13.60
2018,05,25,08,19,13.70
2018,05,25,08,20,13.80
2018,05,25,08,21,13.80
2018,05,25,08,22,13.80
2018,05,25,08,23,13.90
2018,05,25,08,24,13.90
2018,05,25,08,25,13.90
2018,05,25,08,26,14.00
2018,05,25,08,27,14.00
2018,05,25,08,28,14.10
2018,05,25,08,29,14.20
2018,05,25,08,30,14.30
2018,05,25,08,31,14.30
2018,05,25,08,32,14.40
2018,05,25,08,33,14.40
2018,05,25,08,34,14.50
2018,05,25,08,35,14.50
2018,05,25,08,36,14.60
2018,05,25,08,37,14.60
2018,05,25,08,38,14.60
2018,05,25,08,39,14.70
2018,05,25,08,40,14.70
2018,05,25,08,41,14.70
2018,05,25,08,42,14.80
2018,05,25,08,43,14.80
2018,05,25,08,44,14.80
2018,05,25,08,45,14.80
2018,05,25,08,46,14.80
2018,05,25,08,47,14.90
2018,05,25,08,48,14.90
2018,05,25,08,49,15.00
2018,05,25,08,50,15.00
2018,05,25,08,51,15.10
2018,05,25,08,52,15.10
2018,05,25,08,53,15.20
2018,05,25,08,54,15.20
2018,05,25,08,55,15.20
2018,05,25,08,56,15.30
2018,05,25,08,57,15.30
2018,05,25,08,58,15.30
2018,05,25,08,59,15.30
2018,05,25,09,00,15.30
2018,05,25,09,01,15.50
2018,05,25,09,02,15.60
2018,05,25,09,03,15.60
2018,05,25,09,04,15.70
2018,05,25,09,05,15.80
2018,05,25,09,06,15.90
2018,05,25,09,07,16.00
2018,05,25,09,08,16.10
2018,05,25,09,09,16.20
2018,05,25,09,10,16.20
2018,05,25,09,11,16.30
2018,05,25,09,12,16.30
2018,05,25,09,13,16.30
2018,05,25,09,14,16.30
2018,05,25,09,15,16.40
2018,05,25,09,16,16.50
2018,05,25,09,17,16.60
2018,05,25,09,18,16.80
2018,05,25,09,19,16.90
2018,05,25,09,20,17.00
2018,05,25,09,21,17.10
2018,05,25,09,22,17.10
2018,05,25,09,23,17.20
2018,05,25,09,24,17.30
2018,05,25,09,25,17.30
2018,05,25,09,26,17.30
2018,05,25,09,27,17.30
2018,05,25,09,28,17.30
2018,05,25,09,29,17.40
2018,05,25,09,30,17.40
2018,05,25,09,31,17.50
2018,05,25,09,32,17.60
2018,05,25,09,33,17.50
2018,05,25,09,34,17.50
2018,05,25,09,35,17.40
2018,05,25,09,36,17.40
2018,05,25,09,37,17.40
2018,05,25,09,38,17.40
2018,05,25,09,39,17.50
2018,05,25,09,40,17.60
2018,05,25,09,41,17.70
2018,05,25,09,42,17.80
2018,05,25,09,43,17.90
2018,05,25,09,44,18.00
2018,05,25,09,45,18.00
2018,05,25,09,46,18.10
2018,05,25,09,47,18.10
2018,05,25,09,48,18.20
2018,05,25,09,49,18.30
2018,05,25,09,50,18.30
2018,05,25,09,51,18.30
2018,05,25,09,52,18.40
2018,05,25,09,53,18.50
2018,05,25,09,54,18.60
2018,05,25,09,55,18.70
2018,05,25,09,56,18.80
2018,05,25,09,57,19.00
2018,05,25,09,58,19.10
2018,05,25,09,59,19.20
2018,05,25,10,00,19.20
2018,05,25,10,01,19.20
2018,05,25,10,02,19.20
2018,05,25,10,03,19.20
2018,05,25,10,04,19.30
2018,05,25,10,05,19.30
2018,05,25,10,06,19.40
2018,05,25,10,07,19.40
2018,05,25,10,08,19.40
2018,05,25,10,09,19.40
2018,05,25,10,10,19.30
2018,05,25,10,11,19.30
2018,05,25,10,12,19.30
2018,05,25,10,13,19.30
2018,05,25,10,14,19.40
2018,05,25,10,15,19.40
2018,05,25,10,16,19.50
2018,05,25,10,17,19.60
2018,05,25,10,18,19.60
2018,05,25,10,19,19.60
2018,05,25,10,20,19.60
2018,05,25,10,21,19.50
2018,05,25,10,22,19.50
2018,05,25,10,23,19.40
2018,05,25,10,24,19.40
2018,05,25,10,25,19.50
2018,05,25,10,26,19.40
2018,05,25,10,27,19.40
2018,05,25,10,28,19.40
2018,05,25,10,29,19.30
2018,05,25,10,30,19.20
2018,05,25,10,31,19.10
2018,05,25,10,32,19.00
2018,05,25,10,33,18.90
2018,05,25,10,34,18.90
2018,05,25,10,35,18.80
2018,05,25,10,36,18.80
2018,05,25,10,37,18.80
2018,05,25,10,38,18.80
2018,05,25,10,39,18.80
2018,05,25,10,40,18.80
2018,05,25,10,41,18.80
2018,05,25,10,42,18.80
2018,05,25,10,43,18.70
2018,05,25,10,44,18.80
2018,05,25,10,45,18.80
2018,05,25,10,46,18.90
2018,05,25,10,47,19.00
2018,05,25,10,48,19.10
2018,05,25,10,49,19.10
2018,05,25,10,50,19.00
2018,05,25,10,51,19.00
2018,05,25,10,52,18.90
2018,05,25,10,53,18.90
2018,05,25,10,54,18.90
2018,05,25,10,55,18.90
2018,05,25,10,56,19.00
2018,05,25,10,57,19.00
2018,05,25,10,58,19.00
2018,05,25,10,59,18.90
2018,05,25,11,00,18.90
2018,05,25,11,01,18.90
2018,05,25,11,02,18.90
2018,05,25,11,03,18.90
2018,05,25,11,04,19.00
2018,05,25,11,05,19.10
2018,05,25,11,06,19.20
2018,05,25,11,07,19.20
2018,05,25,11,08,19.30
2018,05,25,11,09,19.30
2018,05,25,11,10,19.30
2018,05,25,11,11,19.40
2018,05,25,11,12,19.40
2018,05,25,11,13,19.50
2018,05,25,11,14,19.60
2018,05,25,11,15,19.70
2018,05,25,11,16,19.80
2018,05,25,11,17,19.80
2018,05,25,11,18,19.80
2018,05,25,11,19,19.80
2018,05,25,11,20,19.70
2018,05,25,11,21,19.60
2018,05,25,11,22,19.50
2018,05,25,11,23,19.40
2018,05,25,11,24,19.30
2018,05,25,11,25,19.20
2018,05,25,11,26,19.20
2018,05,25,11,27,19.20
2018,05,25,11,28,19.20
2018,05,25,11,29,19.30
2018,05,25,11,30,19.40
2018,05,25,11,31,19.40
2018,05,25,11,32,19.50
2018,05,25,11,33,19.60
2018,05,25,11,34,19.70
2018,05,25,11,35,19.70
2018,05,25,11,36,19.80
2018,05,25,11,37,19.80
2018,05,25,11,38,19.80
2018,05,25,11,39,19.70
2018,05,25,11,40,19.70
2018,05,25,11,41,19.60
2018,05,25,11,42,19.50
2018,05,25,11,43,19.50
2018,05,25,11,44,19.60
2018,05,25,11,45,19.60
2018,05,25,11,46,19.60
2018,05,25,11,47,19.70
2018,05,25,11,48,19.80
2018,05,25,11,49,19.80
2018,05,25,11,50,19.80
2018,05,25,11,51,19.80
2018,05,25,11,52,19.80
2018,05,25,11,53,19.70
2018,05,25,11,54,19.80
2018,05,25,11,55,19.80
2018,05,25,11,56,19.80
2018,05,25,11,57,19.80
2018,05,25,11,58,19.70
2018,05,25,11,59,19.60
2018,05,25,12,00,19.50
2018,05,25,12,01,19.50
2018,05,25,12,02,19.50
2018,05,25,12,03,19.50
2018,05,25,12,04,19.60
2018,05,25,12,05,19.70
2018,05,25,12,06,19.80
2018,05,25,12,07,19.90
2018,05,25,12,08,19.90
2018,05,25,12,09,19.80
2018,05,25,12,10,19.70
2018,05,25,12,11,19.60
2018,05,25,12,12,19.50
2018,05,25,12,13,19.50
2018,05,25,12,14,19.50
2018,05,25,12,15,19.50
2018,05,25,12,16,19.50
2018,05,25,12,17,19.50
2018,05,25,12,18,19.50
2018,05,25,12,19,19.40
2018,05,25,12,20,19.30
2018,05,25,12,21,19.30
2018,05,25,12,22,19.30
2018,05,25,12,23,19.40
2018,05,25,12,24,19.40
2018,05,25,12,25,19.50
2018,05,25,12,26,19.60
2018,05,25,12,27,19.70
2018,05,25,12,28,19.70
2018,05,25,12,29,19.80
2018,05,25,12,30,19.70
2018,05,25,12,31,19.70
2018,05,25,12,32,19.60
2018,05,25,12,33,19.60
2018,05,25,12,34,19.60
2018,05,25,12,35,19.60
2018,05,25,12,36,19.60
2018,05,25,12,37,19.60
2018,05,25,12,38,19.60
2018,05,25,12,39,19.80
2018,05,25,12,40,19.90
2018,05,25,12,41,20.00
2018,05,25,12,42,20.00
2018,05,25,12,43,20.00
2018,05,25,12,44,20.10
2018,05,25,12,45,20.20
2018,05,25,12,46,20.30
2018,05,25,12,47,20.40
2018,05,25,12,48,20.50
2018,05,25,12,49,20.60
2018,05,25,12,50,20.70
2018,05,25,12,51,20.70
2018,05,25,12,52,20.60
2018,05,25,12,53,20.50
2018,05,25,12,54,20.30
2018,05,25,12,55,20.20
2018,05,25,12,56,20.20
2018,05,25,12,57,20.20
2018,05,25,12,58,20.20
2018,05,25,12,59,20.20
2018,05,25,13,00,20.20
2018,05,25,13,01,20.20
2018,05,25,13,02,20.20
2018,05,25,13,03,20.20
2018,05,25,13,04,20.30
2018,05,25,13,05,20.30
2018,05,25,13,06,20.30
2018,05,25,13,07,20.30
2018,05,25,13,08,20.30
2018,05,25,13,09,20.20
2018,05,25,13,10,20.10
2018,05,25,13,11,20.00
2018,05,25,13,12,19.90
2018,05,25,13,13,19.90
2018,05,25,13,14,19.80
2018,05,25,13,15,19.80
2018,05,25,13,16,19.70
2018,05,25,13,17,19.70
2018,05,25,13,18,19.70
2018,05,25,13,19,19.70
2018,05,25,13,20,19.60
2018,05,25,13,21,19.50
2018,05,25,13,22,19.50
2018,05,25,13,23,19.50
2018,05,25,13,24,19.60
2018,05,25,13,25,19.60
2018,05,25,13,26,19.70
2018,05,25,13,27,19.80
2018,05,25,13,28,19.80
2018,05,25,13,29,19.90
2018,05,25,13,30,19.90
2018,05,25,13,31,19.90
2018,05,25,13,32,19.90
2018,05,25,13,33,19.90
2018,05,25,13,34,19.90
2018,05,25,13,35,19.90
2018,05,25,13,36,19.80
2018,05,25,13,37,19.80
2018,05,25,13,38,19.60
2018,05,25,13,39,19.60
2018,05,25,13,40,19.50
2018,05,25,13,41,19.50
2018,05,25,13,42,19.50
2018,05,25,13,43,19.50
2018,05,25,13,44,19.60
2018,05,25,13,45,19.60
2018,05,25,13,46,19.60
2018,05,25,13,47,19.70
2018,05,25,13,48,19.70
2018,05,25,13,49,19.80
2018,05,25,13,50,19.80
2018,05,25,13,51,19.80
2018,05,25,13,52,19.80
2018,05,25,13,53,19.90
2018,05,25,13,54,19.90
2018,05,25,13,55,19.90
2018,05,25,13,56,20.00
2018,05,25,13,57,20.20
2018,05,25,13,58,20.30
2018,05,25,13,59,20.30
2018,05,25,14,00,20.40
2018,05,25,14,01,20.30
2018,05,25,14,02,20.30
2018,05,25,14,03,20.30
2018,05,25,14,04,20.40
2018,05,25,14,05,20.40
2018,05,25,14,06,20.50
2018,05,25,14,07,20.60
2018,05,25,14,08,20.70
2018,05,25,14,09,20.80
2018,05,25,14,10,20.80
2018,05,25,14,11,20.90
2018,05,25,14,12,21.00
2018,05,25,14,13,21.10
2018,05,25,14,14,21.10
2018,05,25,14,15,21.10
2018,05,25,14,16,21.10
2018,05,25,14,17,21.10
2018,05,25,14,18,21.10
2018,05,25,14,19,21.10
2018,05,25,14,20,21.10
2018,05,25,14,21,21.10
2018,05,25,14,22,21.10
2018,05,25,14,23,21.20
2018,05,25,14,24,21.20
2018,05,25,14,25,21.20
2018,05,25,14,26,21.20
2018,05,25,14,27,21.30
2018,05,25,14,28,21.30
2018,05,25,14,29,21.30
2018,05,25,14,30,21.30
2018,05,25,14,31,21.40
2018,05,25,14,32,21.40
2018,05,25,14,33,21.40
2018,05,25,14,34,21.40
2018,05,25,14,35,21.40
2018,05,25,14,36,21.40
2018,05,25,14,37,21.40
2018,05,25,14,38,21.30
2018,05,25,14,39,21.30
2018,05,25,14,40,21.20
2018,05,25,14,41,21.20
2018,05,25,14,42,21.20
2018,05,25,14,43,21.20
2018,05,25,14,44,21.20
2018,05,25,14,45,21.20
2018,05,25,14,46,21.20
2018,05,25,14,47,21.10
2018,05,25,14,48,21.10
2018,05,25,14,49,21.10
2018,05,25,14,50,21.00
2018,05,25,14,51,20.90
2018,05,25,14,52,20.90
2018,05,25,14,53,20.80
2018,05,25,14,54,20.70
2018,05,25,14,55,20.60
2018,05,25,14,56,20.60
2018,05,25,14,57,20.60
2018,05,25,14,58,20.60
2018,05,25,14,59,20.60
2018,05,25,15,00,20.60
2018,05,25,15,01,20.60
2018,05,25,15,02,20.60
2018,05,25,15,03,20.60
2018,05,25,15,04,20.60
2018,05,25,15,05,20.50
2018,05,25,15,06,20.50
2018,05,25,15,07,20.50
2018,05,25,15,08,20.40
2018,05,25,15,09,20.40
2018,05,25,15,10,20.40
2018,05,25,15,11,20.40
2018,05,25,15,12,20.50
2018,05,25,15,13,20.50
2018,05,25,15,14,20.50
2018,05,25,15,15,20.50
2018,05,25,15,16,20.50
2018,05,25,15,17,20.50
2018,05,25,15,18,20.50
2018,05,25,15,19,20.50
2018,05,25,15,20,20.50
2018,05,25,15,21,20.50
2018,05,25,15,22,20.60
2018,05,25,15,23,20.60
2018,05,25,15,24,20.70
2018,05,25,15,25,20.70
2018,05,25,15,26,20.70
2018,05,25,15,27,20.60
2018,05,25,15,28,20.70
2018,05,25,15,29,20.70
2018,05,25,15,30,20.70
2018,05,25,15,31,20.70
2018,05,25,15,32,20.70
2018,05,25,15,33,20.70
2018,05,25,15,34,20.70
2018,05,25,15,35,20.70
2018,05,25,15,36,20.70
2018,05,25,15,37,20.70
2018,05,25,15,38,20.70
2018,05,25,15,39,20.80
2018,05,25,15,40,20.80
2018,05,25,15,41,20.90
2018,05,25,15,42,21.00
2018,05,25,15,43,21.10
2018,05,25,15,44,21.20
2018,05,25,15,45,21.30
2018,05,25,15,46,21.40
2018,05,25,15,47,21.50
2018,05,25,15,48,21.60
2018,05,25,15,49,21.60
2018,05,25,15,50,21.70
2018,05,25,15,51,21.70
2018,05,25,15,52,21.80
2018,05,25,15,53,21.80
2018,05,25,15,54,21.70
2018,05,25,15,55,21.70
2018,05,25,15,56,21.80
2018,05,25,15,57,21.80
2018,05,25,15,58,21.90
2018,05,25,15,59,21.90
2018,05,25,16,00,22.00
2018,05,25,16,01,22.10
2018,05,25,16,02,22.20
2018,05,25,16,03,22.30
2018,05,25,16,04,22.30
2018,05,25,16,05,22.30
2018,05,25,16,06,22.30
2018,05,25,16,07,22.30
2018,05,25,16,08,22.30
2018,05,25,16,09,22.40
2018,05,25,16,10,22.40
2018,05,25,16,11,22.40
2018,05,25,16,12,22.40
2018,05,25,16,13,22.30
2018,05,25,16,14,22.20
2018,05,25,16,15,22.10
2018,05,25,16,16,22.00
2018,05,25,16,17,22.00
2018,05,25,16,18,22.00
2018,05,25,16,19,22.00
2018,05,25,16,20,22.00
2018,05,25,16,21,21.90
2018,05,25,16,22,21.90
2018,05,25,16,23,21.80
2018,05,25,16,24,21.70
2018,05,25,16,25,21.60
2018,05,25,16,26,21.50
2018,05,25,16,27,21.50
2018,05,25,16,28,21.50
2018,05,25,16,29,21.50
2018,05,25,16,30,21.40
2018,05,25,16,31,21.20
2018,05,25,16,32,20.90
2018,05,25,16,33,20.70
2018,05,25,16,34,20.60
2018,05,25,16,35,20.50
2018,05,25,16,36,20.40
2018,05,25,16,37,20.40
2018,05,25,16,38,20.40
2018,05,25,16,39,20.40
2018,05,25,16,40,20.40
2018,05,25,16,41,20.40
2018,05,25,16,42,20.50
2018,05,25,16,43,20.40
2018,05,25,16,44,20.40
2018,05,25,16,45,20.40
2018,05,25,16,46,20.40
2018,05,25,16,47,20.40
2018,05,25,16,48,20.30
2018,05,25,16,49,20.30
2018,05,25,16,50,20.30
2018,05,25,16,51,20.30
2018,05,25,16,52,20.30
2018,05,25,16,53,20.30
2018,05,25,16,54,20.30
2018,05,25,16,55,20.30
2018,05,25,16,56,20.30
2018,05,25,16,57,20.30
2018,05,25,16,58,20.30
2018,05,25,16,59,20.30
2018,05,25,17,00,20.40
2018,05,25,17,01,20.50
2018,05,25,17,02,20.50
2018,05,25,17,03,20.40
2018,05,25,17,04,20.40
2018,05,25,17,05,20.40
2018,05,25,17,06,20.30
2018,05,25,17,07,20.30
2018,05,25,17,08,20.20
2018,05,25,17,09,20.20
2018,05,25,17,10,20.20
2018,05,25,17,11,20.20
2018,05,25,17,12,20.20
2018,05,25,17,13,20.20
2018,05,25,17,14,20.10
2018,05,25,17,15,20.10
2018,05,25,17,16,20.00
2018,05,25,17,17,19.90
2018,05,25,17,18,19.80
2018,05,25,17,19,19.70
2018,05,25,17,20,19.70
2018,05,25,17,21,19.60
2018,05,25,17,22,19.50
2018,05,25,17,23,19.50
2018,05,25,17,24,19.50
2018,05,25,17,25,19.50
2018,05,25,17,26,19.60
2018,05,25,17,27,19.60
2018,05,25,17,28,19.70
2018,05,25,17,29,19.70
2018,05,25,17,30,19.70